Погода в Студеных Выселках

Россия / Липецкая область     52°42′53″N   39°30′57″E
темп.,
°C
ветер,
м/с
пор.,
м/с
влажн.,
%
обл.,
%
осадки,
мм/ч
давл.,
гПа
погр.,
м
26 октября, вт
вт2600:00−1зюз35680 0.0 1032101
03:00−1зюз38735 0.0 1032170
06:00−2зюз497758 0.0 1031192
09:00+1зюз51066100 0.0 1030277
12:00+5зюз6949100 0.0 1029563
15:00+7зюз61046100 0.0 1028691
18:00+4юз51251100 0.0 1028326
21:00+3юз5135366 0.0 1027327
27 октября, ср
ср2700:00+2юз51354100 0.0 1026337
03:00+2юз51356100 0.0 1026339
06:00+2юз61458100 0.0 1024332
09:00+3юз6155157 0.0 1023441
12:00+8юз8134064 0.0 1021744
15:00+9юз8134352 0.0 10191075
18:00+7зюз71458100 0.0 1018761
21:00+7з61178100 0.1 1018696
28 октября, чт
чт2800:00+6з5108180 0.0 1019451
03:00+6зюз4982100 0.0 1019328
06:00+4зюз41089100 0.0 1018269
09:00+6юз5108393 0.0 1018387
12:00+7юз61385100 0.2 1017598
15:00+7зюз61291100 0.6 1016585
18:00+7з61293100 0.2 1015528
21:00+8з51194100 0.8 1016492
29 октября, пт
пт2900:00+8зсз6119178 0.0 1017488
03:00+8сз61186100 0.0 1019362
06:00+8ссз51086100 0.1 1021665
09:00+7ссв588199 0.1 1025559
12:00+8ссв556435 0.0 1027934
15:00+8ссв446029 0.0 1029963
18:00+5св35715 0.0 1031112
21:00+3в22715 0.0 103238
30 октября, сб
сб3000:00+2ююв33700 0.0 103445
03:00+2ююз33795 0.0 103452
06:00+2юз34865 0.0 103475
09:00+4юз36815 0.0 1035179
12:00+8юз46605 0.0 1034483
15:00+10юз46545 0.0 1033600
18:00+6юз37705 0.0 1034117
21:00+5юз387457 0.0 1034146